Regional Weather Roundup
Issued by NWS Cleveland, OH

Home | Current Version | Previous Version | Text Only | Print | Product List | Glossary Off
Versions: 1 2 3 4 5 6 7 8 9 10 11 12 13 14 15 16 17 18 19 20 21 22 23 24 25 26 27 28 29 30 31 32 33 34 35 36 37 38 39 40 41 42 43 44 45 46 47 48 49 50

000
ASUS41 KCLE 171602
RWRCLE
OHIO REGIONAL WEATHER ROUNDUP
NATIONAL WEATHER SERVICE CLEVELAND, OH
1200 PM EDT WED SEP 17 2014

NOTE: "FAIR" INDICATES FEW OR NO CLOUDS BELOW 12,000 FEET WITH NO
SIGNIFICANT WEATHER AND/OR OBSTRUCTIONS TO VISIBILITY.

OHZ001>008-015>018-024>027-034-035-043-044-171700-
   NORTHWEST OHIO

CITY           SKY/WX    TMP DP  RH WIND       PRES   REMARKS
DEFIANCE       SUNNY     63  46  54 VRB5      30.05F
FINDLAY        SUNNY     64  47  53 W5        30.04F
TOLEDO EXPRESS SUNNY     62  46  55 VRB3      30.04F
TOLEDO EXEC    SUNNY     62  46  55 W10       30.05F
LIMA           MOSUNNY   64  48  56 VRB3      30.05F
$$

OHZ009>014-019>023-028>033-038-089-171700-
   NORTHEAST OHIO

CITY           SKY/WX    TMP DP  RH WIND       PRES   REMARKS
CLE-HOPKINS    PTSUNNY   62  48  60 S8        30.06F
CLE-LAKEFRONT  SUNNY     65  46  50 S7        30.02F
CUY CO. ARPT   PTSUNNY   61  50  67 W12       30.05F
LORAIN-ELYRIA  MOSUNNY   64  47  53 W3        30.05F
ASHTABULA      MOSUNNY   62  47  57 S8        30.05F
AKRON-CANTON   MOSUNNY   63  42  46 CALM      30.05F
WOOSTER        NOT AVBL
MANSFIELD      PTSUNNY   64  44  48 SE5       30.05F
YOUNGSTOWN     PTSUNNY   62  45  53 CALM      30.05F
$$

OHZ042-051>053-060>062-070>072-077>081-171700-
  SOUTHWEST OHIO

CITY           SKY/WX    TMP DP  RH WIND       PRES   REMARKS
CINC-COVINGTON CLOUDY    61  50  67 CALM      30.06F
CINC-LUNKEN    CLOUDY    63  51  65 NE6       30.07F
HAMILTON       CLOUDY    61  51  70 CALM      30.07F
DAYTON         NOT AVBL
WRIGHT-PAT AFB CLOUDY    59  51  74 E5        30.06F
DAYTON GENERAL CLOUDY    60  50  69 VRB3      30.06F
WILMINGTON     CLOUDY    60  49  66 CALM      30.06F
$$

OHZ036-037-039>041-045>050-054>059-063>069-073>076-082>088-171700-
  CENTRAL AND SOUTHEAST OHIO

CITY           SKY/WX    TMP DP  RH WIND       PRES   REMARKS
COLUMBUS       CLOUDY    66  49  54 CALM      30.04F
OSU AIRPORT    CLOUDY    62  49  62 CALM      30.05F
BOLTON FIELD   CLOUDY    63  52  67 CALM      30.06S
RICKENBACK AFB NOT AVBL
NEWARK         MOSUNNY   65  49  56 CALM      30.04F
MARION         CLOUDY    62  44  51 VRB7      30.05F
LANCASTER      CLOUDY    65  51  60 CALM      30.04F
ZANESVILLE     SUNNY     65  50  58 CALM      30.04F
NEW PHILLY     SUNNY     66  48  52 VRB5      30.05F
$$



USA.gov is the U.S. government's official web portal to all federal, state and local government web resources and services.